OneWeb SL0063

operational
NORAD ID: 45448 Int'l Des: 2020-020 Owner: ONEWEB Country: UK Constellation: oneweb
LEOCIRCULARPOLARONEWEB_TYPE

About OneWeb SL0063

Description loading...

Live Position

Loading 3D Globe...

Upcoming Passes

Altitude History

Altitude vs Time

uPlot chart will show altitude changes over time

Two-Line Element Set

1 45448U 20020AA 26062.42649616 -.00000499 00000-0 -14431-2 0 9992
2 45448 87.8859 42.0901 0001868 77.0316 283.1021 13.11416001288839
Epoch: Mar 3, 2026 • Age: 24 hours

Current Status

Altitude 1247.0 km
Velocity 7.23 km/s
Sub-Earth Point -78.30°S, 64.89°E
Launch Date Mar 21, 2020
Age 5.9 years
Type internet

Technical Details

Classification Payload
Mass 148.00 kg
Dry Mass 140.00 kg
Total Mass 148.00 kg
Length 1.30 m
Diameter 1.00 m
Span 5.00 m
Shape Trapezoid+2 pan
Manufacturer ONEWUS
Bus Type ARROW
Phase Status In Orbit
Owner/State ONEWEB/UK

Large Constellations

Loading constellations...